Regional Weather Roundup
Issued by NWS

Home | Current Version | Previous Version | Graphics & Text | Print | Product List | Glossary On
Versions: 1 2 3 4 5 6 7 8 9 10 11 12 13 14 15 16 17 18 19 20 21 22 23 24 25 26 27 28 29 30 31 32 33 34 35 36 37 38 39 40 41 42 43 44 45 46 47 48 49 50
000
ASUS45 KTFX 221019
RWRMT
MONTANA HOURLY WEATHER ROUNDUP
NATIONAL WEATHER SERVICE GREAT FALLS MT
419 AM MDT FRI AUG 22 2014

NOTE: "FAIR" INDICATES FEW OR NO CLOUDS BELOW 12000 FEET WITH NO
SIGNIFICANT WEATHER AND/OR OBSTRUCTIONS TO VISIBILITY.

* THESE STATIONS ARE NOT UNDER NWS QUALITY CONTROL. THEY DO NOT
   REPORT WEATHER SUCH AS PRECIPITATION OR FOG.

MTZ001>007-043-221100-
WEST OF THE DIVIDE
CITY           SKY/WX    TMP DP  RH WIND       PRES   REMARKS
KALISPELL      CLOUDY    57  45  64 NE16      30.05R
MISSOULA       CLOUDY    61  48  62 E10       30.04R
BUTTE          CLOUDY    50  46  86 NW6       30.12F
MULLAN PASS    CLOUDY    46  45  96 E8        30.08R
* ESSEX        N/A       52  45  77 S2         N/A
* LINCOLN      N/A       51  47  86 E7G13      N/A
* LOOKOUT PASS N/A       51  48  90 E1         N/A
* POLSON       N/A       51  48  90 N1         N/A
* RONAN APT    MOCLDY    50  48  93 N/A        N/A
* SEELEY LAKE  N/A       49  48  96 N/A        N/A
* THOMP F APT  MOCLDY    46  44  93 N4         N/A
* YAAK HILL    N/A       57  48  72 E2G8       N/A
$$

MTZ008-052>055-221100-
SOUTHWEST MONTANA
CITY           SKY/WX    TMP DP  RH WIND       PRES   REMARKS
BOZEMAN        LGT RAIN  52  48  86 W10       30.12R
DILLON         CLOUDY    52  48  86 E6        30.11F
W YELLOWSTONE  MOCLDY    43  43 100 CALM      30.18F
* THREE FORKS  CLOUDY    52  34  50 N/A        N/A
* BOULDER HILL N/A       47  44  89 NE1        N/A
* MONIDA PASS  N/A       46  46 100 SE6        N/A
* RAYNOLDS PAS N/A       45  21  38 SE2        N/A
* WHITEHALL    N/A       51  49  93 SE2G7      N/A
* WISE RIVER   N/A       49  46  89 SE4G13     N/A
$$

MTZ009>010-012-014-046-048-049-054-221100-
EAST SLOPES AND CENTRAL MONTANA
CITY           SKY/WX    TMP DP  RH WIND       PRES   REMARKS
CUT BANK       CLOUDY    50  46  86 N8        30.17S
GREAT FALLS    LGT RAIN  52  50  93 NE9       30.13S
HELENA         FOG       55  52  90 W6        30.10S
MALMSTROM AFB  CLOUDY    52  50  93 NE8       30.15S
* CONRAD       CLOUDY    52  52 100 N/A        N/A
* DEARBORN     N/A       52  50  93 N8G14      N/A
* EAST GLACIER N/A       46  44  93 NE5G12     N/A
* MONARCH      N/A       48  45  89 NW4        N/A
* PENDROY      N/A       49  49 100 NE6        N/A
* ROGERS PASS  N/A       46  46 100 S1G6       N/A
* SAINT MARY   N/A       47  47 100 NE1        N/A
* SWEET GRASS  N/A       50  50 100 NE10       N/A
* WHITE SULPH  N/A       51  49  93 W1G12      N/A
$$

MTZ011-013-016-021-035-040-045-047-050-051-221100-
NORTH CENTRAL MONTANA
CITY           SKY/WX    TMP DP  RH WIND       PRES   REMARKS
HAVRE          CLOUDY    57  54  90 NE9       30.11F
LEWISTOWN      FOG       54  52  93 CALM      30.13S VSB 1/2
* FORT BENTON  CLOUDY    54  50  86 N8        30.13F
* CHESTER      N/A       52  49  90 NE9G14     N/A
* DENTON       N/A       53  51  93 NW7        N/A
* GEYSER       N/A       51  50  96 NE4        N/A
* JUDITH GAP   N/A       51  51 100 N11        N/A
* LOMA         N/A       54  51  90 NW9        N/A
$$

MTZ017>020-022>027-061-062-221100-
NORTHEAST MONTANA
CITY           SKY/WX    TMP DP  RH WIND       PRES   REMARKS
GLASGOW        CLOUDY    61  57  87 NE15      30.07R
GLENDIVE       MOCLDY    59  59 100 N3        30.07R
JORDAN         PTCLDY    59  57  93 CALM      30.08S
SIDNEY         CLOUDY    63  61  93 N9        30.06S
WOLF POINT     LGT RAIN  61  57  87 NE9       30.07R
* BEAVER HILL  N/A       59  59 100 N/A        N/A
* CIRCLE       N/A       59  57  93 N5         N/A
* LINDSAY DVD  N/A       58  58 100 NW8        N/A
* SACO         N/A       54  54 100 N5         N/A
$$

MTZ028>042-056>058-221100-
SOUTHCENTRAL AND SOUTHEAST MONTANA
CITY           SKY/WX    TMP DP  RH WIND       PRES   REMARKS
BAKER          CLOUDY    61  59  93 CALM      30.07R
BILLINGS       LGT RAIN  55  54  96 NW3       30.10S
LIVINGSTON     CLOUDY    54  50  86 E13       30.11R
MILES CITY     CLOUDY    61  57  87 NW5       30.06R
* LAUREL APT   CLOUDY    55  52  90 N/A        N/A
* ROUNDUP APT  CLOUDY    54  52  93 N/A        N/A
* ALZADA       N/A       60  59  97 NW4        N/A
* HYSHAM       N/A       54  52  93 NE1        N/A
* LAME DEER    N/A       55  55 100 SW1        N/A
* REED POINT   N/A       55  54  96 SW1        N/A
* ROSCOE HILL  N/A       51  48  90 N/A        N/A
$$

REGIONAL REPORTS...DAKOTAS
CITY           SKY/WX    TMP DP  RH WIND       PRES   REMARKS
WILLISTON      CLOUDY    63  57  81 NE7       30.06R
DICKINSON      FOG       63  61  93 E3        30.03R
BEACH          N/A       59  59 100 N5        30.06S
CROSBY         MOCLDY    55  55 100 NE8       30.09S
TIOGA          CLOUDY    57  57 100 NE12      30.10R
WATFORD CITY   MOCLDY    59  59 100 NE6       30.04R
BISMARCK       LGT RAIN  66  64  93 CALM      30.02S
GRAND FORKS    CLOUDY    68  66  93 NW9       29.92R
FARGO          FOG       64  64 100 CALM      29.91R VSB M1/4
BUFFALO SD     MOCLDY    59  57  93 N6        30.00R
RAPID CITY     MOCLDY    63  61  93 N17       30.02F
$$

REGIONAL REPORTS...WYOMING/IDAHO/WASHINGTON
CITY           SKY/WX    TMP DP  RH WIND       PRES   REMARKS
GILLETTE       CLOUDY    57  54  90 NW6       30.11S
SHERIDAN       CLOUDY    59  54  84 NW3       30.11F
CODY           CLOUDY    52  52 100 CALM      30.13S
YELLOWSTONE LA MOCLDY    45  43  93 CALM      30.25F
SALMON         CLOUDY    55  52  90 CALM      30.02S
MULLAN PASS    CLOUDY    46  45  96 E8        30.08S
SAND POINT     CLOUDY    55  55 100 NE16G24   29.98S
SPOKANE        MOCLDY    57  50  78 N6        29.94R
$$

REGIONAL REPORTS...ALBERTA
CITY           SKY/WX    TMP DP  RH WIND       PRES   REMARKS
CALGARY        CLOUDY    48  46  93 NE6       30.24R
LETHBRIDGE     CLOUDY    52  50  93 NE5       30.19R
MEDICINE HAT   CLOUDY    55  52  90 NE7       30.18S
EDMONTON       MOCLDY    39  37  93 E6        30.28S WCI  35
WATERTON GATE  N/A       46  45  96 N2         N/A
CARDSTON       N/A       48  48 100 NW1        N/A
MILK RIVER     N/A       50  50 100 NE10       N/A
$$

REGIONAL REPORTS...SASKATCHEWAN
CITY           SKY/WX    TMP DP  RH WIND       PRES   REMARKS
SWIFT CURRENT  LGT RAIN  52  52 100 NE14G21   30.17S
MOOSE JAW      CLOUDY    57  55  93 NE9       30.15R
REGINA         CLOUDY    59  55  87 N8        30.14R
VAL MARIE      N/A       57  55  93 NE10       N/A
ASSINIBOIA     N/A       57  54  90 NE9        N/A
CORONACH       N/A       57  54  90 N7         N/A

$$



USA.gov is the U.S. government's official web portal to all federal, state and local government web resources and services.